Location: Newark
(51.1667°N, 4.4833°E)
Time: 04:40:21
(UTC+00:00)

SEEDS - Visible Passes

Search period start: 14 December 2019 00:00
Search period end: 24 December 2019 00:00
Orbit: 585 x 604 km, 97.5° (Epoch: 12 December)

Date Brightness Start Highest point End Pass type
(mag) Time Alt. Az. Time Alt. Az. Time Alt. Az.
14 Dec ? 04:32:16 10° NE 04:35:07 17° E 04:37:57 10° SE visible
14 Dec ? 06:06:58 10° N 06:11:09 59° WNW 06:15:18 10° SSW visible
14 Dec ? 17:03:04 10° S 17:07:04 45° W 17:11:06 10° NNW visible
15 Dec ? 04:41:31 10° NE 04:44:46 21° E 04:48:01 10° SE visible
15 Dec ? 06:16:35 10° N 06:20:40 48° WNW 06:24:45 10° SW visible
15 Dec ? 17:12:49 10° SSW 17:16:40 36° W 17:20:34 10° NNW visible
16 Dec ? 04:50:51 10° NE 04:54:25 26° E 04:57:58 10° SSE visible
16 Dec ? 06:26:14 10° N 06:30:11 39° WNW 06:34:08 10° SW visible
16 Dec ? 17:22:37 10° SSW 17:26:17 30° W 17:30:00 10° NNW visible
17 Dec ? 05:00:14 10° NNE 05:04:02 31° E 05:07:50 10° SSE visible
17 Dec ? 06:35:54 10° N 06:39:41 32° WNW 06:43:28 10° SW visible
17 Dec ? 17:32:30 10° SSW 17:35:55 24° W 17:39:23 10° NW visible
18 Dec ? 05:09:40 10° NNE 05:13:40 39° E 05:17:38 10° SSE visible
18 Dec ? 06:45:36 10° N 06:49:11 27° WNW 06:52:45 10° WSW visible
18 Dec ? 17:42:28 10° SW 17:45:33 20° W 17:48:41 10° NW visible
19 Dec ? 05:19:08 10° NNE 05:23:16 48° E 05:27:22 10° S visible
19 Dec ? 06:55:20 10° N 06:58:39 23° WNW 07:01:58 10° WSW visible
19 Dec ? 16:15:03 10° SSE 16:19:09 62° ENE 16:23:19 10° N visible
19 Dec ? 17:52:33 10° SW 17:55:13 16° W 17:57:54 10° NW visible
20 Dec ? 05:28:38 10° NNE 05:32:51 60° E 05:37:03 10° S visible
20 Dec ? 16:24:31 10° SSE 16:28:40 77° ENE 16:32:54 10° N visible
20 Dec ? 18:02:50 10° WSW 18:04:53 13° W 18:06:57 10° WNW visible
21 Dec ? 05:38:09 10° NNE 05:42:25 75° ESE 05:46:40 10° S visible
21 Dec ? 16:34:03 10° SSE 16:38:14 86° WSW 16:42:28 10° NNW visible
21 Dec ? 18:13:35 10° W 18:14:34 11° W 18:15:33 10° WNW visible
22 Dec ? 04:14:07 10° ENE 04:15:42 12° E 04:17:17 10° ESE visible
22 Dec ? 05:47:42 10° NNE 05:51:59 89° WNW 05:56:14 10° SSW visible
22 Dec ? 16:43:38 10° S 16:47:47 69° WSW 16:52:00 10° NNW visible
23 Dec ? 04:22:59 10° NE 04:25:23 15° E 04:27:46 10° ESE visible
23 Dec ? 05:57:16 10° N 06:01:31 72° WNW 06:05:45 10° SSW visible
23 Dec ? 16:53:16 10° S 16:57:22 55° W 17:01:31 10° NNW visible
